Location: Monrovia
(34.7865°N, 86.7139°W)
Time: 20:13:32
(UTC+00:00)

AQUA - Pass Details

Date: 14 July 2020
Orbit: 701 x 703 km, 98.2° (Epoch: 08 August)

Event Time Altitude Azimuth Distance (km) Brightness Sun altitude
Rises 08:05:06 0° 5° (N) 3,096 8.1 -25.5°
Reaches altitude 10° 08:07:26 10° 359° (N) 2,174 7.0 -25.2°
Enters shadow 08:11:45 45° 295° (WNW) 949 4.3 -24.7°
